sat.trackr.live / text

‹ back to catalog

FLOCK 4H-13

NORAD 66716 · 2025-276BC

PAYLOAD ACTIVE UNKNOWN

§ Identity

Operator
Country
US
Launch date
2025-11-28
Launch site
AFWTR
Launch vehicle
Mass (kg)
RCS (m²)

Purposes: earth_obs

External: N2YO · Heavens-Above · Gunter

§ Orbital elements

Epoch: 2026-09-20T03:43:10.550208Z

Period
94.64 min
Inclination
97.4144°
Eccentricity
0.0001194
Mean motion
15.21599788 rev/d
Perigee alt
500.2 km
Apogee alt
501.8 km
Semi-major
6,879.2 km
B*
2.0182e-4
RAAN
335.5841°
Arg perigee
49.9225°
Mean anomaly
310.2116°
Rev number
4,487

§ Raw data

FLOCK 4H-131 66716U 25276BC  26263.15498322  .00004485  00000+0  20182-3 0  99972 66716  97.4144 335.5841 0001194  49.9225 310.2116 15.21599788 44874

JSON: /api/v1/satellites/66716 · /tle

For live sub-satellite position, see the globe view (requires WebGL).

§ Visibility from observer

Set your observer location to see the next 7 days of passes ≥ 10°. The values pass through the URL so the page stays shareable.

No JS? Fill the form by hand. The geolocation button needs JavaScript.